Volver al catálogo

ONEWEB-0449

ActivoComunicacionesPO
NORAD 51642·PAYLOAD·🇬🇧 United Kingdom

Lanzado Feb 10, 2022 desde Guiana Space Centre

Loading…

Próximos Pases (próximas 24 horas)

TLE

ActualizadoSource: CelesTrak SupGP

Época: Sep 14, 2026, 14:51 UTC

1 51642C 22012W   26257.61925185 -.00000563  00000+0 -16136-2 0  2575
2 51642  87.8907  18.4623 0001834 118.4785 351.6493 13.10369244    18

Sigue ONEWEB-0449 en tiempo real con AllMySat

Download on the App Store